カタログに戻る

OPS 4682 DEB

運用中PO
NORAD 51490·DEBRIS·🇺🇸 United States

打ち上げ Apr 3, 1965 から Vandenberg Space Force Base

Loading…

次のパス (今後24時間)

TLE

最新Source: Space-Track

元期: Sep 12, 2026, 01:58 UTC

1 51490U 65027GA  26255.08227625  .00000358  00000-0  12461-2 0  9993
2 51490  90.2499   8.1369 0016376 313.5860  46.3900 12.95294680556723

AllMySatでOPS 4682 DEBをリアルタイム追跡

Download on the App Store